TimeEST,TemperatureF,Dew PointF,Humidity,Sea Level PressureIn,VisibilityMPH,Wind Direction,Wind SpeedMPH,Gust SpeedMPH,PrecipitationIn,Events,Conditions,WindDirDegrees,DateUTC
12:54 AM,28.0,18.0,66,30.38,10.0,Calm,Calm,-,N/A,,Overcast,0,2012-02-29 05:54:00
1:54 AM,28.0,21.0,75,30.36,10.0,Calm,Calm,-,N/A,,Overcast,0,2012-02-29 06:54:00
2:54 AM,28.0,19.9,72,30.34,10.0,Calm,Calm,-,N/A,,Overcast,0,2012-02-29 07:54:00
3:54 AM,28.0,21.0,75,30.32,10.0,Calm,Calm,-,N/A,,Overcast,0,2012-02-29 08:54:00
4:54 AM,28.0,21.0,75,30.32,10.0,Calm,Calm,-,N/A,,Overcast,0,2012-02-29 09:54:00
5:54 AM,28.0,21.9,78,30.31,10.0,Calm,Calm,-,N/A,,Overcast,0,2012-02-29 10:54:00
6:54 AM,28.0,21.0,75,30.30,9.0,Calm,Calm,-,N/A,,Overcast,0,2012-02-29 11:54:00
7:54 AM,28.9,21.9,75,30.30,10.0,Calm,Calm,-,N/A,,Overcast,0,2012-02-29 12:54:00
8:54 AM,30.0,23.0,75,30.29,10.0,Calm,Calm,-,N/A,,Overcast,0,2012-02-29 13:54:00
9:54 AM,32.0,23.0,69,30.27,10.0,Calm,Calm,-,N/A,,Overcast,0,2012-02-29 14:54:00
10:54 AM,32.0,23.0,69,30.24,10.0,Calm,Calm,-,N/A,,Overcast,0,2012-02-29 15:54:00
11:46 AM,33.8,23.0,65,30.21,2.0,SSE,5.8,-,0.00,Snow,Light Snow,160,2012-02-29 16:46:00
11:54 AM,32.0,25.0,75,30.24,1.2,Variable,4.6,-,0.00,Snow,Light Snow,0,2012-02-29 16:54:00
12:06 PM,30.2,26.6,86,30.20,0.8,SE,8.1,-,0.00,Snow,Light Snow,130,2012-02-29 17:06:00
12:22 PM,30.2,26.6,86,30.18,0.5,SE,6.9,-,0.01,Fog-Snow,Snow,130,2012-02-29 17:22:00
12:37 PM,30.2,26.6,86,30.16,0.8,ESE,5.8,-,0.01,Snow,Light Snow,120,2012-02-29 17:37:00
12:54 PM,30.0,28.0,92,30.18,1.0,Calm,Calm,-,0.02,Snow,Light Snow,0,2012-02-29 17:54:00
1:04 PM,30.2,28.4,93,30.13,0.8,SE,4.6,-,0.00,Snow,Light Snow,130,2012-02-29 18:04:00
1:52 PM,30.2,28.4,93,30.10,0.5,East,4.6,-,0.02,Fog-Snow,Snow,80,2012-02-29 18:52:00
1:54 PM,30.0,28.0,92,30.13,0.5,ENE,4.6,-,0.03,Fog-Snow,Snow,70,2012-02-29 18:54:00
2:22 PM,30.2,28.4,93,30.08,0.8,NE,3.5,-,0.01,Snow,Light Snow,40,2012-02-29 19:22:00
2:29 PM,30.2,28.4,93,30.08,1.0,Variable,4.6,-,0.01,Snow,Light Snow,0,2012-02-29 19:29:00
2:54 PM,32.0,27.0,82,30.10,3.0,East,3.5,-,0.01,Snow,Light Snow,100,2012-02-29 19:54:00
3:27 PM,33.8,26.6,75,30.06,2.0,East,4.6,-,0.00,Snow,Light Snow,100,2012-02-29 20:27:00
3:36 PM,32.0,26.6,80,30.05,1.2,ESE,5.8,-,0.00,Snow,Light Snow,110,2012-02-29 20:36:00
3:54 PM,32.0,28.0,85,30.06,1.0,ESE,5.8,-,0.01,Snow,Light Snow,110,2012-02-29 20:54:00
4:34 PM,32.0,28.4,87,30.01,3.0,East,3.5,-,0.00,Snow,Light Snow,90,2012-02-29 21:34:00
4:43 PM,32.0,28.4,87,30.00,5.0,East,3.5,-,0.00,Snow,Light Snow,80,2012-02-29 21:43:00
4:54 PM,33.1,27.0,78,30.03,5.0,NE,3.5,-,0.00,Snow,Light Snow,40,2012-02-29 21:54:00
5:54 PM,34.0,26.1,73,29.99,10.0,Variable,4.6,-,0.00,,Overcast,0,2012-02-29 22:54:00
7:54 PM,33.1,27.0,78,29.96,4.0,ESE,9.2,-,0.00,Snow,Light Snow,110,2012-03-01 00:54:00
8:14 PM,33.8,26.6,75,29.92,2.0,ESE,8.1,-,0.01,Snow,Light Snow,110,2012-03-01 01:14:00
8:31 PM,32.0,26.6,80,29.89,4.0,East,10.4,-,0.01,Snow,Light Snow,100,2012-03-01 01:31:00
8:45 PM,32.0,26.6,80,29.88,4.0,ESE,13.8,19.6,0.01,Snow,Light Snow,120,2012-03-01 01:45:00
8:54 PM,33.1,26.1,75,29.90,4.0,ESE,11.5,19.6,0.01,Snow,Light Snow,110,2012-03-01 01:54:00
9:54 PM,33.1,24.1,70,29.89,10.0,ESE,18.4,28.8,0.01,,Overcast,120,2012-03-01 02:54:00
10:54 PM,32.0,24.1,73,29.84,10.0,SE,18.4,27.6,N/A,,Overcast,140,2012-03-01 03:54:00
11:54 PM,33.1,24.1,70,29.82,10.0,ESE,15.0,28.8,N/A,,Overcast,110,2012-03-01 04:54:00